�N����,�����b,���ԉ��x,���Ԏ��x,��󒲎�,����,�ݼ�
2004/2/1,0:00:00,20.9 ,34.2 ,16.4 ,9.2 ,18.1 
2004/2/1,0:15:00,21.3 ,33.4 ,16.4 ,9.3 ,18.1 
2004/2/1,0:30:00,21.4 ,33.1 ,16.3 ,9.4 ,18.1 
2004/2/1,0:45:00,21.4 ,33.0 ,16.3 ,9.5 ,18.0 
2004/2/1,1:00:00,21.7 ,32.6 ,16.3 ,8.1 ,18.0 
2004/2/1,1:15:00,21.5 ,33.4 ,16.2 ,8.1 ,18.0 
2004/2/1,1:30:00,21.5 ,33.5 ,16.2 ,8.3 ,18.0 
2004/2/1,1:45:00,21.7 ,33.0 ,16.2 ,8.4 ,18.0 
2004/2/1,2:00:00,20.8 ,34.9 ,16.1 ,8.5 ,17.9 
2004/2/1,2:15:00,21.0 ,34.5 ,16.1 ,8.7 ,17.9 
2004/2/1,2:30:00,21.2 ,33.8 ,16.1 ,8.8 ,18.0 
2004/2/1,2:45:00,21.3 ,33.6 ,16.1 ,8.9 ,18.0 
2004/2/1,3:00:00,21.3 ,33.8 ,16.0 ,9.0 ,18.0 
2004/2/1,3:15:00,21.3 ,33.5 ,16.0 ,9.2 ,18.0 
2004/2/1,3:30:00,20.7 ,34.7 ,16.0 ,9.3 ,17.8 
2004/2/1,3:45:00,21.0 ,34.1 ,16.0 ,9.4 ,17.9 
2004/2/1,4:00:00,21.2 ,33.7 ,15.9 ,9.5 ,17.9 
2004/2/1,4:15:00,21.3 ,33.8 ,17.0 ,7.7 ,18.0 
2004/2/1,4:30:00,21.3 ,34.0 ,17.2 ,7.8 ,18.0 
2004/2/1,4:45:00,20.7 ,34.9 ,16.7 ,7.9 ,17.9 
2004/2/1,5:00:00,21.1 ,34.0 ,16.5 ,8.1 ,17.9 
2004/2/1,5:15:00,21.1 ,33.8 ,16.3 ,6.3 ,17.9 
2004/2/1,5:30:00,21.0 ,33.9 ,16.2 ,6.5 ,17.9 
2004/2/1,5:45:00,21.3 ,33.2 ,16.1 ,6.6 ,17.9 
2004/2/1,6:00:00,21.4 ,33.0 ,16.1 ,6.7 ,18.0 
2004/2/1,6:15:00,20.7 ,34.7 ,16.0 ,6.9 ,17.8 
2004/2/1,6:30:00,21.0 ,33.6 ,16.0 ,7.0 ,17.9 
2004/2/1,6:45:00,21.2 ,33.2 ,15.9 ,7.2 ,17.9 
2004/2/1,7:00:00,21.4 ,33.1 ,15.9 ,7.4 ,18.0 
2004/2/1,7:15:00,21.4 ,33.7 ,16.5 ,7.5 ,21.9 
2004/2/1,7:30:00,21.5 ,34.1 ,16.4 ,7.7 ,20.3 
2004/2/1,7:45:00,20.8 ,35.5 ,16.2 ,7.8 ,19.3 
2004/2/1,8:00:00,21.4 ,34.4 ,16.5 ,6.3 ,18.9 
2004/2/1,8:15:00,21.4 ,35.1 ,16.8 ,6.5 ,18.9 
2004/2/1,8:30:00,21.4 ,35.2 ,17.0 ,6.6 ,19.0 
2004/2/1,8:45:00,21.7 ,34.9 ,17.7 ,6.8 ,19.1 
2004/2/1,9:00:00,21.5 ,35.9 ,18.1 ,6.9 ,19.1 
2004/2/1,9:15:00,21.6 ,35.4 ,18.4 ,6.4 ,19.2 
2004/2/1,9:30:00,21.6 ,36.4 ,18.6 ,6.6 ,19.3 
2004/2/1,9:45:00,21.7 ,36.6 ,18.8 ,6.7 ,19.4 
2004/2/1,10:00:00,22.0 ,36.1 ,18.9 ,6.8 ,19.4 
2004/2/1,10:15:00,22.1 ,35.5 ,19.0 ,7.0 ,20.1 
2004/2/1,10:30:00,22.1 ,36.1 ,19.1 ,7.2 ,22.1 
2004/2/1,10:45:00,22.1 ,36.4 ,19.3 ,6.7 ,20.9 
2004/2/1,11:00:00,22.4 ,34.8 ,19.4 ,6.9 ,20.3 
2004/2/1,11:15:00,22.3 ,34.9 ,19.5 ,6.1 ,20.1 
2004/2/1,11:30:00,22.4 ,34.5 ,19.7 ,6.2 ,19.9 
2004/2/1,11:45:00,22.4 ,35.0 ,19.7 ,6.3 ,19.9 
2004/2/1,12:00:00,22.4 ,36.1 ,19.8 ,6.5 ,20.0 
2004/2/1,12:15:00,22.5 ,35.7 ,19.8 ,6.3 ,20.0 
2004/2/1,12:30:00,22.5 ,36.3 ,19.9 ,6.4 ,20.0 
2004/2/1,12:45:00,22.6 ,36.8 ,19.9 ,6.5 ,20.0 
2004/2/1,13:00:00,22.6 ,37.5 ,19.8 ,6.7 ,20.0 
2004/2/1,13:15:00,22.5 ,37.5 ,19.9 ,6.9 ,22.0 
2004/2/1,13:30:00,22.5 ,38.5 ,19.9 ,7.0 ,22.6 
2004/2/1,13:45:00,22.6 ,38.6 ,19.8 ,7.2 ,22.4 
2004/2/1,14:00:00,22.7 ,38.3 ,19.7 ,7.4 ,21.6 
2004/2/1,14:15:00,22.7 ,38.1 ,19.6 ,7.6 ,21.0 
2004/2/1,14:30:00,22.7 ,38.0 ,19.7 ,7.7 ,20.7 
2004/2/1,14:45:00,22.8 ,38.8 ,19.6 ,7.9 ,20.6 
2004/2/1,15:00:00,22.8 ,39.3 ,19.7 ,8.0 ,20.6 
2004/2/1,15:15:00,22.8 ,40.0 ,19.8 ,8.2 ,20.5 
2004/2/1,15:30:00,22.7 ,40.3 ,19.9 ,8.4 ,20.5 
2004/2/1,15:45:00,22.8 ,39.8 ,19.9 ,7.3 ,20.5 
2004/2/1,16:00:00,22.8 ,40.7 ,19.9 ,7.4 ,20.5 
2004/2/1,16:15:00,22.7 ,37.6 ,19.8 ,7.6 ,20.4 
2004/2/1,16:30:00,22.7 ,38.8 ,19.5 ,7.7 ,20.3 
2004/2/1,16:45:00,22.6 ,39.0 ,19.3 ,7.9 ,20.2 
2004/2/1,17:00:00,22.7 ,38.6 ,19.2 ,8.0 ,20.1 
2004/2/1,17:15:00,22.7 ,38.5 ,19.0 ,8.2 ,20.0 
2004/2/1,17:30:00,22.6 ,38.5 ,18.9 ,8.3 ,20.0 
2004/2/1,17:45:00,22.6 ,38.0 ,18.8 ,8.5 ,19.9 
2004/2/1,18:00:00,22.5 ,37.9 ,18.6 ,8.6 ,19.8 
2004/2/1,18:15:00,22.4 ,37.9 ,18.5 ,8.8 ,19.8 
2004/2/1,18:30:00,22.3 ,38.1 ,18.4 ,8.9 ,19.7 
2004/2/1,18:45:00,22.5 ,38.3 ,18.3 ,9.1 ,19.9 
2004/2/1,19:00:00,22.4 ,39.2 ,18.3 ,7.8 ,19.9 
2004/2/1,19:15:00,22.4 ,39.1 ,18.2 ,7.9 ,19.9 
2004/2/1,19:30:00,22.5 ,39.3 ,18.1 ,8.1 ,19.9 
2004/2/1,19:45:00,22.5 ,39.1 ,18.0 ,8.2 ,19.9 
2004/2/1,20:00:00,22.5 ,39.0 ,17.9 ,8.4 ,19.8 
2004/2/1,20:15:00,22.5 ,38.8 ,17.9 ,8.5 ,19.8 
2004/2/1,20:30:00,22.5 ,39.6 ,17.8 ,8.7 ,19.8 
2004/2/1,20:45:00,22.6 ,39.4 ,17.8 ,7.6 ,19.6 
2004/2/1,21:00:00,22.5 ,39.3 ,17.7 ,6.8 ,19.6 
2004/2/1,21:15:00,22.4 ,39.9 ,17.6 ,6.8 ,19.6 
2004/2/1,21:30:00,21.5 ,42.7 ,18.2 ,7.0 ,19.4 
2004/2/1,21:45:00,21.2 ,42.3 ,18.5 ,7.2 ,19.1 
2004/2/1,22:00:00,21.0 ,42.9 ,18.1 ,7.3 ,18.9 
2004/2/1,22:15:00,20.8 ,42.7 ,17.8 ,7.5 ,18.8 
2004/2/1,22:30:00,20.7 ,41.4 ,17.6 ,7.7 ,18.7 
2004/2/1,22:45:00,20.6 ,41.5 ,17.4 ,7.8 ,18.6 
2004/2/1,23:00:00,20.4 ,42.3 ,17.3 ,8.0 ,18.6 
2004/2/1,23:15:00,20.4 ,40.8 ,17.2 ,8.2 ,18.5 
2004/2/1,23:30:00,20.1 ,41.7 ,17.0 ,8.3 ,18.4 
2004/2/1,23:45:00,20.2 ,41.0 ,16.9 ,8.5 ,18.3 
2004/2/2,0:00:00,20.1 ,41.5 ,16.8 ,8.6 ,18.3 
2004/2/2,0:15:00,20.2 ,40.2 ,16.7 ,8.8 ,18.3 
2004/2/2,0:30:00,20.2 ,40.0 ,16.6 ,8.9 ,18.2 
2004/2/2,0:45:00,20.2 ,39.9 ,16.5 ,9.0 ,18.2 
2004/2/2,1:00:00,20.2 ,39.6 ,16.4 ,9.2 ,18.2 
2004/2/2,1:15:00,19.8 ,41.3 ,16.3 ,9.3 ,18.0 
2004/2/2,1:30:00,19.9 ,39.9 ,16.3 ,9.4 ,18.0 
2004/2/2,1:45:00,20.0 ,39.6 ,16.2 ,9.6 ,18.0 
2004/2/2,2:00:00,20.0 ,39.3 ,16.1 ,9.7 ,18.0 
2004/2/2,2:15:00,19.9 ,39.4 ,16.0 ,9.8 ,18.0 
2004/2/2,2:30:00,19.9 ,39.3 ,16.0 ,10.0 ,17.9 
2004/2/2,2:45:00,19.9 ,39.2 ,15.9 ,10.1 ,17.8 
2004/2/2,3:00:00,19.8 ,39.2 ,15.8 ,10.2 ,17.8 
2004/2/2,3:15:00,19.8 ,39.0 ,15.7 ,10.4 ,17.8 
2004/2/2,3:30:00,19.8 ,39.0 ,15.7 ,10.5 ,17.8 
2004/2/2,3:45:00,19.8 ,39.0 ,15.6 ,6.9 ,17.7 
2004/2/2,4:00:00,19.7 ,39.0 ,15.5 ,7.0 ,17.7 
2004/2/2,4:15:00,19.7 ,39.2 ,15.5 ,7.1 ,17.6 
2004/2/2,4:30:00,19.6 ,39.1 ,15.4 ,7.3 ,17.6 
2004/2/2,4:45:00,19.6 ,38.8 ,15.4 ,7.4 ,17.6 
2004/2/2,5:00:00,19.6 ,38.8 ,15.3 ,7.6 ,17.6 
2004/2/2,5:15:00,19.6 ,38.8 ,15.2 ,7.7 ,17.5 
2004/2/2,5:30:00,19.6 ,38.7 ,15.2 ,7.9 ,17.6 
2004/2/2,5:45:00,19.5 ,39.9 ,15.1 ,8.0 ,17.6 
2004/2/2,6:00:00,20.4 ,36.4 ,15.1 ,8.2 ,17.6 
2004/2/2,6:15:00,20.9 ,35.7 ,15.0 ,8.3 ,17.8 
2004/2/2,6:30:00,20.8 ,35.7 ,15.0 ,8.5 ,17.9 
2004/2/2,6:45:00,21.0 ,35.2 ,14.9 ,6.8 ,18.1 
2004/2/2,7:00:00,21.2 ,35.0 ,15.4 ,6.8 ,18.2 
2004/2/2,7:15:00,21.0 ,37.1 ,15.4 ,6.3 ,18.3 
2004/2/2,7:30:00,21.0 ,38.7 ,15.6 ,6.3 ,18.4 
2004/2/2,7:45:00,21.1 ,38.1 ,15.4 ,6.5 ,18.5 
2004/2/2,8:00:00,21.1 ,38.3 ,15.6 ,6.6 ,18.6 
2004/2/2,8:15:00,20.3 ,41.0 ,15.5 ,6.8 ,18.5 
2004/2/2,8:30:00,19.8 ,42.0 ,15.4 ,7.0 ,18.3 
2004/2/2,8:45:00,20.0 ,39.9 ,15.3 ,7.1 ,18.3 
2004/2/2,9:00:00,20.0 ,40.1 ,15.3 ,7.3 ,18.3 
2004/2/2,9:15:00,19.7 ,40.6 ,15.2 ,7.4 ,18.2 
2004/2/2,9:30:00,19.8 ,40.1 ,15.2 ,7.6 ,18.3 
2004/2/2,9:45:00,19.8 ,40.0 ,15.2 ,7.7 ,18.3 
2004/2/2,10:00:00,19.9 ,40.1 ,15.2 ,7.9 ,18.4 
2004/2/2,10:15:00,19.8 ,40.2 ,15.3 ,8.0 ,18.5 
2004/2/2,10:30:00,19.9 ,40.3 ,15.4 ,8.2 ,18.5 
2004/2/2,10:45:00,19.9 ,40.4 ,15.5 ,8.3 ,18.6 
2004/2/2,11:00:00,19.9 ,40.3 ,15.6 ,8.5 ,18.7 
2004/2/2,11:15:00,19.9 ,40.4 ,15.7 ,8.6 ,18.7 
2004/2/2,11:30:00,19.9 ,40.2 ,15.7 ,8.7 ,18.7 
2004/2/2,11:45:00,19.9 ,40.5 ,15.6 ,8.9 ,18.7 
2004/2/2,12:00:00,19.9 ,40.3 ,15.6 ,9.0 ,18.6 
2004/2/2,12:15:00,19.9 ,40.4 ,15.5 ,9.1 ,18.6 
2004/2/2,12:30:00,19.9 ,40.4 ,15.5 ,9.3 ,18.6 
2004/2/2,12:45:00,19.9 ,40.4 ,15.5 ,9.4 ,18.6 
2004/2/2,13:00:00,19.9 ,40.5 ,15.5 ,9.5 ,18.6 
2004/2/2,13:15:00,19.9 ,40.3 ,15.4 ,9.7 ,18.6 
2004/2/2,13:30:00,19.9 ,40.5 ,15.4 ,9.8 ,18.7 
2004/2/2,13:45:00,19.9 ,40.4 ,15.4 ,9.9 ,18.6 
2004/2/2,14:00:00,19.9 ,40.5 ,15.4 ,10.0 ,18.7 
2004/2/2,14:15:00,19.9 ,40.5 ,15.4 ,10.2 ,18.6 
2004/2/2,14:30:00,19.9 ,40.5 ,15.4 ,10.3 ,18.6 
2004/2/2,14:45:00,19.9 ,40.5 ,15.4 ,10.5 ,18.6 
2004/2/2,15:00:00,19.9 ,40.7 ,15.3 ,10.6 ,18.5 
2004/2/2,15:15:00,19.8 ,40.7 ,15.3 ,10.8 ,18.5 
2004/2/2,15:30:00,19.8 ,40.6 ,15.3 ,10.9 ,18.5 
2004/2/2,15:45:00,19.8 ,40.9 ,15.3 ,11.0 ,18.5 
2004/2/2,16:00:00,19.8 ,41.0 ,15.3 ,11.2 ,18.5 
2004/2/2,16:15:00,19.8 ,41.0 ,15.3 ,11.3 ,18.4 
2004/2/2,16:30:00,19.7 ,41.1 ,15.3 ,11.4 ,18.4 
2004/2/2,16:45:00,19.7 ,41.1 ,15.2 ,11.5 ,18.4 
2004/2/2,17:00:00,19.7 ,41.1 ,15.2 ,11.6 ,18.4 
2004/2/2,17:15:00,19.7 ,41.2 ,15.2 ,11.8 ,18.4 
2004/2/2,17:30:00,19.7 ,41.1 ,15.2 ,11.8 ,18.3 
2004/2/2,17:45:00,19.7 ,41.1 ,15.2 ,11.9 ,18.3 
2004/2/2,18:00:00,19.7 ,41.0 ,15.2 ,12.1 ,18.3 
2004/2/2,18:15:00,19.7 ,41.3 ,15.2 ,12.2 ,18.3 
2004/2/2,18:30:00,19.7 ,41.2 ,15.2 ,12.3 ,18.2 
2004/2/2,18:45:00,19.7 ,41.1 ,15.2 ,12.4 ,18.2 
2004/2/2,19:00:00,19.7 ,41.2 ,15.2 ,12.5 ,18.2 
2004/2/2,19:15:00,19.7 ,41.2 ,15.2 ,12.6 ,18.2 
2004/2/2,19:30:00,19.8 ,40.9 ,15.2 ,12.7 ,18.2 
2004/2/2,19:45:00,19.8 ,41.8 ,15.2 ,12.7 ,18.2 
2004/2/2,20:00:00,19.9 ,41.7 ,15.1 ,12.8 ,18.2 
2004/2/2,20:15:00,20.8 ,39.9 ,15.1 ,12.9 ,18.2 
2004/2/2,20:30:00,20.9 ,40.4 ,15.2 ,13.0 ,19.3 
2004/2/2,20:45:00,20.7 ,40.7 ,15.1 ,13.1 ,19.0 
2004/2/2,21:00:00,21.1 ,40.9 ,15.1 ,13.2 ,18.9 
2004/2/2,21:15:00,21.3 ,40.5 ,15.2 ,13.2 ,18.9 
2004/2/2,21:30:00,21.5 ,40.5 ,15.2 ,13.3 ,19.0 
2004/2/2,21:45:00,21.6 ,40.4 ,15.2 ,9.0 ,19.1 
2004/2/2,22:00:00,20.4 ,43.8 ,15.2 ,9.1 ,19.0 
2004/2/2,22:15:00,20.4 ,43.1 ,15.2 ,9.2 ,18.8 
2004/2/2,22:30:00,19.9 ,44.6 ,15.2 ,9.3 ,18.6 
2004/2/2,22:45:00,20.0 ,43.7 ,15.2 ,9.5 ,18.5 
2004/2/2,23:00:00,19.9 ,43.4 ,15.2 ,9.6 ,18.5 
2004/2/2,23:15:00,20.0 ,43.3 ,15.2 ,9.7 ,18.5 
2004/2/2,23:30:00,20.0 ,42.9 ,15.2 ,9.8 ,18.5 
2004/2/2,23:45:00,19.9 ,43.6 ,15.2 ,9.9 ,18.4 
2004/2/3,0:00:00,20.0 ,43.1 ,15.2 ,10.1 ,18.4 
2004/2/3,0:15:00,20.0 ,43.2 ,15.2 ,10.2 ,18.4 
2004/2/3,0:30:00,20.0 ,43.1 ,15.2 ,10.3 ,18.4 
2004/2/3,0:45:00,20.0 ,43.2 ,15.2 ,10.5 ,18.4 
2004/2/3,1:00:00,20.0 ,43.2 ,15.2 ,10.6 ,18.4 
2004/2/3,1:15:00,20.0 ,43.0 ,15.2 ,10.7 ,18.4 
2004/2/3,1:30:00,20.0 ,43.3 ,15.2 ,10.9 ,18.4 
2004/2/3,1:45:00,20.0 ,43.2 ,15.2 ,11.0 ,18.4 
2004/2/3,2:00:00,20.0 ,43.2 ,15.2 ,11.1 ,18.4 
2004/2/3,2:15:00,19.9 ,43.1 ,15.2 ,11.2 ,18.4 
2004/2/3,2:30:00,19.9 ,43.2 ,15.2 ,11.4 ,18.3 
2004/2/3,2:45:00,19.9 ,43.1 ,15.2 ,11.5 ,18.3 
2004/2/3,3:00:00,19.9 ,43.2 ,15.2 ,11.6 ,18.3 
2004/2/3,3:15:00,19.9 ,43.1 ,15.2 ,11.8 ,18.3 
2004/2/3,3:30:00,19.9 ,43.0 ,15.2 ,11.9 ,18.3 
2004/2/3,3:45:00,19.9 ,43.1 ,15.2 ,12.0 ,18.2 
2004/2/3,4:00:00,19.9 ,42.8 ,15.2 ,12.1 ,18.2 
2004/2/3,4:15:00,19.9 ,42.8 ,15.2 ,12.2 ,18.2 
2004/2/3,4:30:00,19.9 ,42.6 ,15.2 ,12.3 ,18.2 
2004/2/3,4:45:00,19.9 ,42.5 ,15.2 ,12.4 ,18.1 
2004/2/3,5:00:00,19.8 ,42.5 ,15.2 ,12.5 ,18.1 
2004/2/3,5:15:00,19.8 ,42.6 ,15.2 ,9.1 ,18.1 
2004/2/3,5:30:00,19.8 ,42.5 ,15.1 ,9.2 ,18.1 
2004/2/3,5:45:00,19.8 ,42.4 ,15.1 ,9.4 ,18.0 
2004/2/3,6:00:00,19.8 ,42.2 ,15.1 ,9.5 ,18.0 
2004/2/3,6:15:00,19.8 ,42.3 ,15.1 ,9.6 ,18.0 
2004/2/3,6:30:00,19.8 ,42.3 ,15.1 ,9.2 ,18.0 
2004/2/3,6:45:00,19.9 ,42.6 ,15.1 ,7.9 ,18.0 
2004/2/3,7:00:00,20.6 ,40.8 ,15.3 ,8.0 ,18.0 
2004/2/3,7:15:00,21.0 ,40.5 ,15.4 ,8.1 ,18.1 
2004/2/3,7:30:00,21.1 ,40.5 ,15.8 ,7.8 ,18.2 
2004/2/3,7:45:00,21.1 ,40.3 ,15.6 ,6.4 ,18.3 
2004/2/3,8:00:00,21.0 ,40.0 ,15.5 ,6.5 ,18.4 
2004/2/3,8:15:00,21.3 ,39.7 ,16.1 ,6.7 ,18.6 
2004/2/3,8:30:00,20.8 ,41.2 ,16.1 ,6.8 ,18.8 
2004/2/3,8:45:00,21.3 ,40.1 ,15.9 ,7.0 ,18.9 
2004/2/3,9:00:00,21.3 ,40.0 ,15.7 ,7.1 ,18.9 
2004/2/3,9:15:00,21.5 ,39.5 ,15.7 ,7.3 ,18.9 
2004/2/3,9:30:00,21.6 ,39.3 ,15.7 ,7.5 ,18.9 
2004/2/3,9:45:00,21.6 ,39.5 ,15.6 ,7.6 ,19.0 
2004/2/3,10:00:00,20.6 ,41.2 ,15.6 ,7.8 ,18.9 
2004/2/3,10:15:00,21.1 ,39.5 ,15.5 ,7.9 ,19.0 
2004/2/3,10:30:00,21.4 ,38.7 ,15.5 ,8.0 ,19.1 
2004/2/3,10:45:00,21.4 ,38.7 ,15.5 ,8.2 ,19.1 
2004/2/3,11:00:00,21.5 ,39.3 ,15.5 ,8.3 ,19.1 
2004/2/3,11:15:00,20.9 ,40.2 ,15.4 ,8.5 ,19.1 
2004/2/3,11:30:00,21.3 ,39.4 ,15.5 ,8.6 ,19.2 
2004/2/3,11:45:00,21.5 ,38.3 ,16.3 ,8.8 ,19.1 
2004/2/3,12:00:00,21.5 ,37.6 ,16.6 ,8.9 ,19.1 
2004/2/3,12:15:00,21.0 ,38.7 ,16.9 ,9.0 ,19.1 
2004/2/3,12:30:00,21.3 ,38.7 ,17.1 ,9.2 ,19.1 
2004/2/3,12:45:00,21.5 ,39.0 ,17.3 ,9.3 ,19.2 
2004/2/3,13:00:00,21.6 ,39.2 ,17.3 ,7.8 ,18.9 
2004/2/3,13:15:00,21.6 ,39.5 ,17.0 ,7.9 ,18.8 
2004/2/3,13:30:00,21.6 ,39.7 ,16.8 ,8.0 ,18.8 
2004/2/3,13:45:00,20.9 ,41.6 ,16.7 ,8.1 ,18.6 
2004/2/3,14:00:00,21.4 ,40.1 ,16.5 ,8.3 ,18.7 
2004/2/3,14:15:00,21.5 ,40.0 ,16.4 ,8.4 ,18.7 
2004/2/3,14:30:00,21.6 ,39.8 ,16.4 ,8.5 ,18.7 
2004/2/3,14:45:00,21.5 ,39.6 ,16.3 ,8.7 ,18.7 
2004/2/3,15:00:00,21.5 ,40.1 ,16.2 ,8.8 ,18.6 
2004/2/3,15:15:00,20.7 ,42.2 ,16.2 ,8.9 ,18.6 
2004/2/3,15:30:00,21.3 ,40.8 ,16.1 ,9.1 ,18.6 
2004/2/3,15:45:00,21.4 ,40.6 ,16.1 ,9.2 ,18.6 
2004/2/3,16:00:00,21.4 ,41.3 ,16.0 ,9.3 ,18.6 
2004/2/3,16:15:00,21.5 ,40.5 ,16.0 ,9.4 ,18.6 
2004/2/3,16:30:00,20.7 ,42.0 ,16.0 ,7.9 ,18.6 
2004/2/3,16:45:00,21.3 ,39.3 ,16.0 ,8.1 ,18.7 
2004/2/3,17:00:00,21.4 ,39.0 ,15.9 ,8.2 ,18.7 
2004/2/3,17:15:00,21.4 ,38.7 ,15.8 ,8.4 ,18.6 
2004/2/3,17:30:00,21.0 ,39.6 ,15.8 ,8.5 ,18.7 
2004/2/3,17:45:00,21.1 ,39.5 ,15.8 ,8.6 ,18.6 
2004/2/3,18:00:00,21.3 ,39.2 ,15.7 ,8.7 ,18.4 
2004/2/3,18:15:00,21.3 ,39.1 ,15.7 ,8.9 ,18.7 
2004/2/3,18:30:00,20.7 ,40.4 ,15.6 ,9.0 ,20.4 
2004/2/3,18:45:00,20.8 ,38.8 ,15.5 ,9.1 ,22.7 
2004/2/3,19:00:00,21.0 ,38.1 ,15.4 ,9.2 ,25.3 
2004/2/3,19:15:00,20.9 ,38.4 ,15.4 ,9.4 ,23.5 
2004/2/3,19:30:00,20.6 ,38.6 ,15.3 ,9.5 ,22.4 
2004/2/3,19:45:00,20.8 ,38.2 ,15.5 ,9.6 ,23.6 
2004/2/3,20:00:00,20.9 ,40.0 ,15.4 ,9.7 ,23.3 
2004/2/3,20:15:00,21.1 ,40.7 ,15.4 ,9.8 ,21.7 
2004/2/3,20:30:00,21.0 ,41.2 ,15.4 ,9.9 ,20.6 
2004/2/3,20:45:00,21.0 ,42.0 ,15.4 ,10.1 ,19.8 
2004/2/3,21:00:00,21.1 ,40.6 ,15.9 ,10.2 ,19.5 
2004/2/3,21:15:00,21.2 ,39.7 ,16.6 ,10.4 ,19.2 
2004/2/3,21:30:00,21.2 ,39.8 ,16.9 ,8.4 ,19.0 
2004/2/3,21:45:00,20.7 ,41.3 ,17.4 ,8.4 ,18.8 
2004/2/3,22:00:00,21.1 ,41.0 ,17.7 ,8.6 ,18.7 
2004/2/3,22:15:00,21.1 ,42.2 ,17.6 ,8.7 ,18.6 
2004/2/3,22:30:00,20.9 ,41.9 ,17.4 ,8.8 ,18.5 
2004/2/3,22:45:00,20.8 ,41.1 ,17.2 ,8.9 ,18.3 
2004/2/3,23:00:00,21.0 ,41.2 ,17.0 ,9.1 ,18.2 
2004/2/3,23:15:00,21.3 ,39.9 ,16.9 ,9.2 ,18.2 
2004/2/3,23:30:00,20.4 ,41.8 ,16.8 ,9.3 ,18.2 
2004/2/3,23:45:00,20.0 ,42.7 ,16.7 ,9.4 ,18.0 
2004/2/4,0:00:00,20.0 ,41.7 ,16.6 ,9.5 ,17.8 
2004/2/4,0:15:00,19.9 ,41.4 ,16.5 ,9.7 ,17.7 
2004/2/4,0:30:00,19.9 ,40.8 ,16.4 ,9.8 ,17.6 
2004/2/4,0:45:00,19.5 ,42.4 ,16.3 ,9.9 ,17.5 
2004/2/4,1:00:00,19.5 ,41.8 ,16.3 ,10.0 ,17.4 
2004/2/4,1:15:00,19.6 ,41.2 ,16.2 ,10.2 ,17.4 
2004/2/4,1:30:00,19.5 ,40.9 ,16.1 ,10.3 ,17.4 
2004/2/4,1:45:00,19.5 ,40.9 ,16.1 ,10.4 ,17.4 
2004/2/4,2:00:00,19.5 ,40.7 ,16.1 ,10.6 ,17.4 
2004/2/4,2:15:00,19.5 ,40.5 ,16.0 ,10.7 ,17.3 
2004/2/4,2:30:00,19.5 ,40.5 ,16.0 ,10.8 ,17.3 
2004/2/4,2:45:00,19.4 ,40.4 ,15.9 ,11.0 ,17.2 
2004/2/4,3:00:00,19.4 ,40.5 ,15.9 ,11.1 ,17.2 
2004/2/4,3:15:00,19.4 ,40.4 ,15.9 ,11.2 ,17.2 
2004/2/4,3:30:00,19.3 ,40.3 ,15.8 ,11.3 ,17.1 
2004/2/4,3:45:00,19.3 ,40.3 ,15.8 ,11.5 ,17.1 
2004/2/4,4:00:00,19.3 ,40.1 ,15.8 ,11.6 ,17.1 
2004/2/4,4:15:00,19.2 ,40.4 ,15.7 ,8.6 ,17.1 
2004/2/4,4:30:00,19.2 ,40.2 ,15.7 ,8.7 ,17.1 
2004/2/4,4:45:00,19.3 ,39.8 ,15.7 ,8.8 ,17.0 
2004/2/4,5:00:00,19.2 ,40.0 ,15.7 ,8.9 ,17.0 
2004/2/4,5:15:00,19.2 ,39.9 ,15.6 ,7.6 ,16.9 
2004/2/4,5:30:00,19.2 ,39.8 ,15.6 ,7.7 ,17.0 
2004/2/4,5:45:00,19.2 ,39.8 ,15.6 ,7.8 ,16.9 
2004/2/4,6:00:00,19.1 ,40.0 ,15.5 ,7.9 ,16.9 
2004/2/4,6:15:00,19.1 ,39.9 ,15.5 ,8.1 ,16.9 
2004/2/4,6:30:00,19.1 ,39.8 ,15.5 ,8.2 ,16.9 
2004/2/4,6:45:00,19.1 ,39.9 ,15.5 ,8.3 ,16.8 
2004/2/4,7:00:00,18.8 ,41.5 ,15.4 ,6.7 ,16.8 
2004/2/4,7:15:00,20.1 ,38.1 ,15.4 ,6.9 ,16.9 
2004/2/4,7:30:00,20.2 ,38.0 ,15.7 ,7.0 ,17.1 
2004/2/4,7:45:00,20.2 ,38.4 ,15.6 ,6.6 ,17.2 
2004/2/4,8:00:00,19.9 ,39.2 ,15.5 ,6.7 ,17.2 
2004/2/4,8:15:00,20.2 ,37.9 ,15.5 ,6.8 ,18.3 
2004/2/4,8:30:00,20.4 ,37.1 ,15.5 ,6.3 ,21.1 
2004/2/4,8:45:00,20.6 ,37.8 ,15.6 ,6.3 ,21.6 
2004/2/4,9:00:00,20.7 ,37.4 ,15.9 ,6.5 ,20.4 
2004/2/4,9:15:00,20.8 ,37.4 ,16.3 ,6.7 ,19.8 
2004/2/4,9:30:00,20.9 ,37.3 ,16.7 ,6.8 ,19.4 
2004/2/4,9:45:00,19.9 ,39.4 ,16.5 ,7.0 ,18.9 
2004/2/4,10:00:00,19.7 ,39.1 ,16.5 ,7.1 ,18.5 
2004/2/4,10:15:00,19.8 ,38.0 ,16.5 ,7.3 ,18.3 
2004/2/4,10:30:00,19.6 ,38.5 ,16.6 ,7.4 ,18.1 
2004/2/4,10:45:00,19.6 ,37.9 ,16.7 ,7.6 ,18.0 
2004/2/4,11:00:00,19.7 ,37.6 ,16.7 ,7.7 ,17.9 
2004/2/4,11:15:00,19.7 ,37.6 ,16.7 ,7.9 ,17.9 
2004/2/4,11:30:00,19.4 ,38.6 ,16.8 ,8.0 ,17.8 
2004/2/4,11:45:00,19.4 ,38.2 ,16.7 ,8.2 ,17.7 
2004/2/4,12:00:00,19.5 ,37.9 ,16.6 ,8.3 ,17.7 
2004/2/4,12:15:00,19.5 ,37.8 ,16.6 ,8.4 ,17.6 
2004/2/4,12:30:00,19.5 ,37.6 ,16.8 ,8.6 ,17.6 
2004/2/4,12:45:00,19.5 ,37.8 ,16.7 ,8.7 ,17.7 
2004/2/4,13:00:00,19.5 ,37.8 ,16.7 ,8.8 ,17.6 
2004/2/4,13:15:00,19.4 ,37.9 ,16.6 ,9.0 ,17.6 
2004/2/4,13:30:00,19.5 ,37.8 ,16.6 ,9.1 ,17.6 
2004/2/4,13:45:00,19.4 ,37.8 ,16.6 ,9.2 ,17.5 
2004/2/4,14:00:00,19.4 ,38.2 ,16.5 ,9.4 ,17.4 
2004/2/4,14:15:00,19.3 ,38.6 ,16.5 ,7.9 ,17.4 
2004/2/4,14:30:00,19.3 ,38.5 ,16.4 ,8.0 ,17.3 
2004/2/4,14:45:00,19.4 ,38.4 ,16.4 ,8.1 ,17.3 
2004/2/4,15:00:00,19.5 ,38.4 ,16.6 ,8.2 ,17.2 
2004/2/4,15:15:00,20.0 ,37.3 ,16.6 ,8.4 ,23.6 
2004/2/4,15:30:00,20.5 ,37.4 ,16.7 ,8.5 ,21.5 
2004/2/4,15:45:00,19.9 ,37.8 ,16.7 ,8.6 ,19.8 
2004/2/4,16:00:00,20.5 ,35.5 ,16.7 ,8.7 ,19.1 
2004/2/4,16:15:00,20.8 ,34.5 ,16.6 ,8.9 ,18.7 
2004/2/4,16:30:00,20.8 ,35.2 ,16.6 ,9.0 ,18.5 
2004/2/4,16:45:00,20.3 ,36.9 ,16.5 ,9.1 ,18.2 
2004/2/4,17:00:00,20.9 ,36.5 ,16.5 ,9.2 ,18.4 
2004/2/4,17:15:00,20.8 ,37.3 ,16.5 ,9.3 ,18.3 
2004/2/4,17:30:00,21.0 ,37.4 ,16.4 ,9.4 ,18.3 
2004/2/4,17:45:00,20.5 ,38.7 ,16.4 ,9.6 ,21.1 
2004/2/4,18:00:00,20.6 ,38.3 ,16.4 ,9.7 ,25.7 
2004/2/4,18:15:00,20.6 ,38.6 ,16.3 ,9.8 ,24.6 
2004/2/4,18:30:00,20.6 ,38.3 ,16.2 ,9.9 ,25.6 
2004/2/4,18:45:00,20.7 ,37.7 ,16.2 ,10.0 ,23.5 
2004/2/4,19:00:00,20.8 ,37.4 ,16.2 ,10.5 ,21.9 
2004/2/4,19:15:00,20.6 ,38.9 ,16.3 ,8.0 ,20.9 
2004/2/4,19:30:00,20.7 ,39.1 ,16.3 ,8.1 ,20.3 
2004/2/4,19:45:00,20.9 ,38.8 ,16.3 ,8.3 ,19.9 
2004/2/4,20:00:00,21.0 ,37.9 ,16.2 ,8.4 ,19.3 
2004/2/4,20:15:00,20.9 ,38.0 ,16.2 ,8.5 ,20.9 
2004/2/4,20:30:00,20.9 ,39.5 ,16.2 ,8.6 ,20.6 
2004/2/4,20:45:00,20.9 ,38.6 ,16.2 ,7.3 ,19.8 
2004/2/4,21:00:00,21.1 ,38.4 ,16.1 ,6.5 ,19.4 
2004/2/4,21:15:00,21.0 ,40.7 ,16.1 ,6.6 ,19.1 
2004/2/4,21:30:00,21.0 ,40.8 ,16.1 ,6.8 ,18.9 
2004/2/4,21:45:00,20.3 ,41.0 ,16.1 ,6.9 ,18.6 
2004/2/4,22:00:00,21.0 ,39.8 ,16.1 ,6.6 ,18.5 
2004/2/4,22:15:00,21.1 ,39.8 ,16.0 ,6.7 ,18.5 
2004/2/4,22:30:00,21.1 ,39.1 ,16.0 ,6.9 ,18.3 
2004/2/4,22:45:00,21.2 ,38.6 ,16.0 ,7.0 ,18.2 
2004/2/4,23:00:00,21.2 ,38.6 ,16.0 ,7.2 ,18.2 
2004/2/4,23:15:00,21.1 ,39.4 ,16.0 ,7.3 ,18.1 
2004/2/4,23:30:00,20.7 ,39.2 ,15.9 ,7.5 ,18.0 
2004/2/4,23:45:00,21.0 ,38.5 ,15.9 ,8.3 ,18.0 
2004/2/5,0:00:00,21.2 ,37.8 ,16.1 ,6.3 ,18.0 
2004/2/5,0:15:00,21.1 ,37.6 ,16.0 ,6.4 ,17.9 
2004/2/5,0:30:00,21.2 ,37.3 ,15.9 ,6.6 ,17.8 
2004/2/5,0:45:00,21.0 ,38.2 ,15.9 ,6.7 ,17.7 
2004/2/5,1:00:00,19.9 ,40.5 ,15.8 ,6.9 ,17.6 
2004/2/5,1:15:00,20.8 ,37.2 ,15.8 ,7.0 ,17.5 
2004/2/5,1:30:00,20.8 ,37.2 ,15.8 ,7.2 ,17.6 
2004/2/5,1:45:00,20.9 ,37.1 ,15.7 ,7.3 ,17.6 
2004/2/5,2:00:00,20.9 ,37.2 ,15.7 ,7.5 ,17.6 
2004/2/5,2:15:00,20.8 ,36.8 ,15.7 ,7.6 ,17.6 
2004/2/5,2:30:00,20.7 ,37.4 ,15.7 ,7.8 ,17.5 
2004/2/5,2:45:00,20.1 ,38.8 ,15.6 ,7.9 ,17.5 
2004/2/5,3:00:00,20.8 ,36.5 ,15.6 ,8.1 ,17.6 
2004/2/5,3:15:00,20.9 ,36.2 ,15.6 ,8.2 ,17.5 
2004/2/5,3:30:00,21.0 ,35.9 ,15.6 ,8.3 ,17.4 
2004/2/5,3:45:00,20.6 ,36.9 ,15.5 ,8.5 ,17.4 
2004/2/5,4:00:00,19.6 ,39.6 ,15.5 ,8.6 ,17.3 
2004/2/5,4:15:00,20.5 ,36.2 ,15.5 ,8.7 ,17.4 
2004/2/5,4:30:00,20.6 ,35.4 ,15.4 ,8.9 ,17.4 
2004/2/5,4:45:00,20.7 ,35.2 ,15.4 ,9.0 ,17.4 
2004/2/5,5:00:00,20.9 ,34.5 ,15.4 ,9.1 ,17.4 
2004/2/5,5:15:00,20.8 ,34.5 ,15.4 ,9.3 ,17.3 
2004/2/5,5:30:00,20.4 ,36.1 ,15.3 ,9.4 ,17.3 
2004/2/5,5:45:00,20.4 ,35.0 ,15.3 ,9.5 ,17.3 
2004/2/5,6:00:00,20.6 ,34.2 ,15.3 ,9.6 ,17.4 
2004/2/5,6:15:00,20.7 ,34.5 ,15.3 ,7.5 ,17.4 
2004/2/5,6:30:00,20.7 ,35.0 ,15.4 ,6.3 ,17.4 
2004/2/5,6:45:00,20.7 ,35.9 ,15.5 ,6.3 ,17.4 
2004/2/5,7:00:00,20.6 ,35.4 ,15.5 ,6.5 ,17.5 
2004/2/5,7:15:00,20.8 ,35.3 ,15.4 ,6.6 ,17.5 
2004/2/5,7:30:00,20.7 ,35.5 ,15.4 ,6.8 ,17.5 
2004/2/5,7:45:00,20.8 ,35.5 ,16.0 ,6.0 ,17.6 
2004/2/5,8:00:00,20.7 ,35.4 ,15.9 ,6.1 ,19.2 
2004/2/5,8:15:00,20.7 ,34.0 ,15.9 ,6.2 ,21.3 
2004/2/5,8:30:00,20.9 ,34.3 ,16.0 ,6.4 ,20.4 
2004/2/5,8:45:00,20.9 ,34.6 ,15.9 ,6.6 ,19.4 
2004/2/5,9:00:00,20.9 ,34.9 ,16.1 ,6.7 ,18.8 
2004/2/5,9:15:00,20.9 ,35.1 ,16.5 ,6.9 ,18.6 
2004/2/5,9:30:00,21.2 ,34.6 ,16.5 ,7.0 ,18.6 
2004/2/5,9:45:00,21.4 ,34.7 ,16.5 ,7.2 ,18.6 
2004/2/5,10:00:00,21.1 ,35.5 ,16.4 ,6.6 ,18.5 
2004/2/5,10:15:00,20.3 ,37.7 ,16.3 ,6.7 ,18.4 
2004/2/5,10:30:00,20.7 ,37.2 ,17.6 ,7.1 ,18.7 
2004/2/5,10:45:00,21.0 ,36.7 ,18.9 ,7.4 ,19.0 
2004/2/5,11:00:00,21.3 ,36.4 ,17.2 ,7.5 ,18.8 
2004/2/5,11:15:00,21.3 ,36.7 ,16.5 ,7.6 ,20.0 
2004/2/5,11:30:00,20.9 ,38.1 ,16.1 ,7.8 ,19.4 
2004/2/5,11:45:00,21.4 ,36.6 ,16.0 ,7.9 ,18.8 
2004/2/5,12:00:00,21.3 ,36.2 ,15.9 ,8.0 ,18.5 
2004/2/5,12:15:00,20.7 ,37.7 ,15.8 ,8.2 ,18.2 
2004/2/5,12:30:00,21.1 ,37.5 ,15.9 ,7.5 ,18.4 
2004/2/5,12:45:00,21.3 ,36.9 ,15.9 ,7.5 ,18.5 
2004/2/5,13:00:00,20.5 ,38.5 ,15.9 ,7.6 ,18.3 
2004/2/5,13:15:00,21.0 ,37.4 ,15.8 ,7.7 ,18.1 
2004/2/5,13:30:00,21.0 ,36.8 ,15.8 ,7.9 ,18.1 
2004/2/5,13:45:00,20.2 ,38.6 ,15.7 ,8.0 ,17.9 
2004/2/5,14:00:00,21.1 ,36.9 ,15.7 ,8.1 ,18.1 
2004/2/5,14:15:00,21.1 ,37.1 ,15.7 ,8.3 ,18.2 
2004/2/5,14:30:00,20.5 ,37.4 ,15.7 ,7.3 ,18.0 
2004/2/5,14:45:00,21.0 ,35.4 ,15.7 ,7.6 ,18.1 
2004/2/5,15:00:00,20.7 ,35.9 ,15.7 ,7.7 ,18.1 
2004/2/5,15:15:00,20.9 ,34.8 ,16.1 ,7.8 ,17.9 
2004/2/5,15:30:00,21.1 ,33.8 ,16.4 ,7.9 ,18.1 
2004/2/5,15:45:00,21.0 ,35.5 ,16.3 ,6.5 ,18.3 
2004/2/5,16:00:00,20.3 ,36.1 ,16.1 ,6.6 ,24.3 
2004/2/5,16:15:00,21.0 ,35.2 ,16.0 ,6.7 ,28.3 
2004/2/5,16:30:00,20.9 ,34.6 ,15.8 ,6.8 ,26.2 
2004/2/5,16:45:00,20.3 ,35.2 ,15.8 ,7.0 ,23.3 
2004/2/5,17:00:00,20.7 ,34.2 ,15.7 ,7.1 ,22.5 
2004/2/5,17:15:00,21.1 ,33.7 ,15.6 ,7.3 ,27.3 
2004/2/5,17:30:00,21.1 ,33.4 ,15.5 ,7.4 ,24.0 
2004/2/5,17:45:00,21.3 ,32.8 ,15.5 ,7.6 ,22.3 
2004/2/5,18:00:00,21.2 ,33.4 ,15.4 ,7.7 ,23.0 
2004/2/5,18:15:00,20.8 ,34.1 ,15.4 ,7.9 ,23.1 
2004/2/5,18:30:00,21.3 ,33.2 ,15.3 ,8.0 ,21.6 
2004/2/5,18:45:00,21.4 ,33.0 ,15.4 ,8.1 ,20.5 
2004/2/5,19:00:00,21.4 ,33.1 ,15.5 ,8.3 ,19.8 
2004/2/5,19:15:00,21.3 ,34.1 ,15.4 ,8.4 ,19.4 
2004/2/5,19:30:00,21.4 ,34.0 ,15.4 ,8.5 ,19.1 
2004/2/5,19:45:00,20.9 ,35.5 ,15.6 ,8.7 ,19.1 
2004/2/5,20:00:00,21.2 ,34.6 ,16.1 ,8.8 ,18.9 
2004/2/5,20:15:00,21.4 ,34.1 ,16.5 ,8.9 ,18.8 
2004/2/5,20:30:00,21.5 ,36.4 ,17.2 ,8.1 ,19.0 
2004/2/5,20:45:00,21.0 ,38.0 ,17.4 ,8.2 ,22.9 
2004/2/5,21:00:00,21.4 ,36.6 ,17.1 ,8.3 ,22.9 
2004/2/5,21:15:00,21.4 ,36.0 ,16.8 ,8.4 ,21.8 
2004/2/5,21:30:00,21.4 ,35.5 ,16.6 ,8.5 ,20.9 
2004/2/5,21:45:00,21.4 ,35.2 ,16.5 ,8.6 ,20.0 
2004/2/5,22:00:00,21.8 ,34.8 ,16.4 ,8.8 ,19.8 
2004/2/5,22:15:00,21.2 ,36.3 ,16.3 ,8.9 ,19.4 
2004/2/5,22:30:00,21.6 ,35.3 ,16.2 ,9.0 ,19.2 
2004/2/5,22:45:00,21.6 ,34.9 ,16.1 ,9.1 ,19.0 
2004/2/5,23:00:00,21.7 ,34.4 ,16.1 ,9.2 ,19.0 
2004/2/5,23:15:00,21.1 ,36.0 ,16.1 ,9.3 ,19.0 
2004/2/5,23:30:00,20.4 ,36.7 ,16.2 ,9.5 ,18.7 
2004/2/5,23:45:00,20.2 ,36.3 ,16.1 ,9.6 ,18.4 
2004/2/6,0:00:00,20.0 ,36.8 ,16.0 ,9.7 ,18.1 
2004/2/6,0:15:00,20.1 ,36.2 ,16.0 ,9.8 ,18.1 
2004/2/6,0:30:00,19.8 ,36.8 ,15.9 ,9.9 ,18.0 
2004/2/6,0:45:00,19.8 ,36.9 ,15.9 ,10.0 ,17.8 
2004/2/6,1:00:00,19.9 ,36.7 ,15.8 ,10.2 ,17.9 
2004/2/6,1:15:00,19.6 ,37.7 ,15.8 ,10.3 ,17.6 
2004/2/6,1:30:00,19.7 ,36.8 ,15.7 ,10.4 ,17.5 
2004/2/6,1:45:00,19.8 ,36.5 ,15.7 ,10.6 ,17.5 
2004/2/6,2:00:00,19.9 ,36.3 ,15.7 ,10.7 ,17.6 
2004/2/6,2:15:00,19.5 ,37.6 ,15.7 ,10.8 ,17.4 
2004/2/6,2:30:00,19.5 ,37.6 ,15.6 ,10.9 ,17.3 
2004/2/6,2:45:00,19.7 ,36.8 ,15.6 ,11.1 ,17.3 
2004/2/6,3:00:00,19.8 ,36.6 ,15.6 ,11.2 ,17.4 
2004/2/6,3:15:00,19.8 ,36.0 ,15.5 ,11.3 ,17.5 
2004/2/6,3:30:00,19.7 ,36.3 ,15.5 ,11.4 ,17.4 
2004/2/6,3:45:00,19.7 ,36.3 ,15.5 ,11.5 ,17.4 
2004/2/6,4:00:00,19.6 ,36.3 ,15.4 ,11.7 ,17.4 
2004/2/6,4:15:00,19.6 ,36.4 ,15.4 ,11.8 ,17.3 
2004/2/6,4:30:00,19.6 ,36.3 ,15.4 ,11.9 ,17.1 
2004/2/6,4:45:00,19.4 ,36.5 ,15.3 ,12.0 ,17.0 
2004/2/6,5:00:00,19.3 ,37.3 ,15.3 ,12.0 ,16.9 